Погода в Щербакуле

Погода в Щербакуле : погода сейчас, прогноз погоды и архив. Всё, что Вы хотите узнать о погоде в Щербакуле!

Хотите узнать прогноз погоды в Щербакуле? Тогда Вам сюда: Погода в Щербакуле

Поиск расширенной информации на нашем сайте:

Другие новости

Новости СМИ2

Главная страница сайта

Новости сайта

03.07.2017

Напоминаем, что на нашем специализированном сайте Метеоцентр.Азия вы можете получить высокодетализированные автоматические прогнозы погоды по пунктам России, СНГ и мира в авиационном формате (включающие направление и скорость ветра, видимость, явления погоды, количество и форму облачности, нижнюю и верхнюю границу облачности).

Рекомендуем: http://www.italyvisa.ru Документы необходимые для оформления визы в Италию

Погода в Щербакуле - сегодня

Время (UTC), дата Ветер
(°,м/с) 
Видим.   Явления Облачность Т
(°С)
Тd
(°С)
f(%) Тe
(°С)
Pmin
(гПа)
dP
(гПа)
Po
(мм)
O2
(г/м3)
Тmin Tmax R s Состояние
почвы
03 20.02.18 210 (ЮЗ) 20000 м  [диам. изморози 7 мм]  10/0 верхняя 
[Cs]
-20.8 -23.7 78 -21  1035  -1  764  335  -21.3      28  равномерный
сухой снег
100% 
06 20.02.18 190 (Ю) 20000 м  [диам. изморози 0 мм]  10/0 верхняя 
[Cs]
-14.8 -17.8 78 -15  1033.6  -1  764  327           
09 20.02.18 140 (ЮВ) 20000 м    10/0 верхняя 
[Cs]
-12.5 -16.5 72 -15  1031.6  -1.9  762  323           
12 20.02.18 130 (ЮВ) 20000 м    10/0 верхняя 
[Cs]
-16.4 -19.1 80 -19  1030.2  -1.6  761  328           
15 20.02.18 140 (ЮВ) 20000 м    ясно 
-16.1 -18.8 80 -20  1028.3  -1.8  760  327    -12.3       
18 20.02.18 130 (ЮВ) 20000 м    ясно 
-16.9 -19.4 81 -21  1026.5  -1.8  758  327           
21 20.02.18 140 (ЮВ) 20000 м    8/0 верхняя 
[Ci]
-16 -18.8 79 -18  1024.4  -2  757  325           
00 21.02.18 090 (В) 20000 м    ясно 
-19.6 -21.9 82 -22  1022.4  -2.2  755  329           
03 21.02.18 120 (ЮВ) 20000 м    10/0 средняя 
[Ac As]
-15.1 -18.5 75 -21  1019.3  -2.9  753  323  -19.9      28  равномерный
сухой снег
100% 
06 21.02.18 120 (ЮВ) 20000 м    10/0 средняя 
[Ac As]
-10.8 -15.2 70 -16  1017  -2  752  317           
09 21.02.18 140 (ЮВ) 20000 м    10/0 средняя 
[Ac As]
-8.5 -12.6 72 -14  1014.1  -2.7  750  313           
12 21.02.18 160 (Ю) 20000 м    10/6 360 м средняя 
[St|Ac lent]
-9.2 -12.4 78 -12  1011.9  -2.2  748  313           
15 21.02.18 160 (Ю) 20000 м    10/8 330 м средняя 
[St|As trans]
-9.8 -12.6 80 -12  1010.3  -1.5  747  313    -7.9       
18 21.02.18 240 (ЮЗ) 20000 м    3/0 верхняя 
[Ci fib]
-13.8 -15.8 85 -16  1010.1  -0.5  746  318           
21 21.02.18 280 (З) 20000 м  [диам. изморози 1 мм]  4/0 верхняя 
[Ci fib]
-10.7 -13.7 79 -16  1011.6  1.7  748  315           
03 22.02.18 270 (З) 4{11}  20000 м  {снег}  10/6 420 м верхняя 
[St|Ci fib]
-10.7 -13.2 82 -15  1017.5  2.7  752  317  -14    0.0  26  равномерный
сухой снег
100% 
06 22.02.18 240 (ЮЗ) 20000 м  {снег}  ясно 
-13 -16.9 73 -18  1019.7  2.1  754  320           
09 22.02.18 260 (З) 20000 м    ясно 
-10.5 -15 69 -15  1020  0.4  754  317           
12 22.02.18 220 (ЮЗ) 20000 м    9/0 верхняя 
[Ci sp]
-13.2 -16.8 74 -15  1020.5  0.3  754  321           
18 22.02.18 260 (З) 20000 м    10/0 верхняя 
[Cs]
-10.2 -13.7 76 -16  1019.8  -0.1  754  317           
21 22.02.18 260 (З) 6{10}  20000 м    10/0 верхняя 
[Ci fib]
-12.7 -15.8 78 -19  1020.2  0.3  754  320           
00 23.02.18 250 (З) 20000 м    10/0 верхняя 
[Ci fib]
-15.1 -17.8 80 -20  1021.2  0.9  755  323           
03 23.02.18 240 (ЮЗ) 20000 м    4/0 верхняя 
[Ci fib]
-20.1 -22.8 79 -24  1022.6  755  330  -20.4      26  равномерный
сухой снег
100% 
06 23.02.18 240 (ЮЗ) 20000 м    4/0 верхняя 
[Ci fib]
-16.7 -20.3 74 -22  1022.7  0.3  756  326           
09 23.02.18 250 (З) 20000 м    10/0 верхняя 
[Cs]
-13.1 -17.6 69 -18  1022.6  0.1  756  321           
Время (UTC), дата Ветер
(°,м/с) 
Видим.   Явления Облачность Т
(°С)
Тd
(°С)
f(%) Тe
(°С)
Pmin
(гПа)
dP
(гПа)
Po
(мм)
O2
(г/м3)
Тmin Tmax R s Состояние
почвы

Для получения пояснительной информации подведите курсор к названию столбца.

ПОГОДА в Щербакуле - архив

Всё, что Вы хотите узнать о погоде в Щербакуле - удобно и подробно!

Выберите нужную дату (начиная с 1 января 2015* года) и нажмите кнопку "Найти".
Будут отображены архивные сводки погоды по пункту Щербакуль, начиная с указанной даты.


Отображать данные в формате CSV (для использования в таблицах Excel)


Внимание! Наш архив погоды предназначен исключительно для личного некоммерческого использования в познавательных целях. Если Вам необходимы официальные справки о состоянии погоды (для производственных, юридических, коммерческих и т.п. целей), обращайтесь в органы Росгидромета.

*Примечание: данная дата относится к архиву по метеостанциям СССР (Россия, СНГ, Балтия).
Архив по метеостанциям Зарубежной Европы и Азии (кроме Китая) хранится 10 дней, по другим регионам земного шара (Китай, Африка, Америка, Австралия, Океания) - 1 день.

Щербакуль - район местоположения метеостанции


Название, широта, долгота, высота метеостанции:
Щербакуль 54.6°ш. 72.4°д. 115 м над ур. моря [Российская Федерация]

Дополнительная информация

В oтличие oт бoльшинства пoгoдных сайтoв мы публикуем пoдрoбную метеoинфoрмацию в детальнoм прoфессиoнальнoм фoрмате.

Характеристики температуры и влажнoсти вoздуха измеряются на высoте 2 м в тени вдали oт зданий и деревьев.
Скoрoсть ветра измеряется на высoте 10 м (на урoвне рoста челoвека скoрoсть ветра ниже в 1.5-2 раза). Если метеoстанция нахoдится в гoрoде или в лесу, тo скoрoсть ветра занижена на 2-4 м/с пo сравнению с oткрытым местoм. Скoрoсть ветра над акватoриями крупных рек и oзёр, а также на вершинах хoлмoв на 2-5 м/с выше, чем в oбычных услoвиях.
Атмoсфернoе давление в разных тoчках местнoсти мoжет значительнo oтличаться oт давления на метеoстанции, в зависимoсти oт услoвий рельефа (при пoдъёме на 10 м давление пoнижается примернo на 1 мм рт.ст.).